Theta_e
322 322 323 323 324 322 320 320 321 322 326 326 323 322 331 341 336 333 340 345 346 350 352 352 353 353 350 349 350 351 351 351 350 348 347 347 347 348 350 351 352 352 352 353 354 353 353 352 350 350 349 349 350 351 351 351 350 349 351 353 350 348 349 351 352 351 352 353 353 351 353 355 354 352 352 352 351 351 352 351 351 351 352 352 352 351 351
321 322 323 324 322 320 319 320 323 324 325 325 322 324 333 338 336 338 342 346 351 352 350 352 352 349 348 349 350 349 350 351 351 348 346 346 345 345 346 347 348 349 349 350 351 350 351 350 350 350 349 349 351 351 351 351 351 350 350 353 353 351 351 353 353 354 355 355 354 353 354 356 358 357 355 353 353 354 354 352 350 349 350 350 351 351 350
320 322 323 324 323 322 320 322 328 328 325 326 325 327 334 335 336 341 342 344 350 351 348 349 348 347 349 349 350 350 349 349 350 348 346 345 344 344 344 345 345 346 346 346 347 349 350 349 349 348 349 350 351 352 352 351 351 351 351 354 356 355 354 354 353 355 356 356 355 354 355 359 361 361 360 357 355 354 355 353 351 349 349 349 350 351 351
319 321 321 322 323 321 321 325 330 330 327 328 327 329 334 334 335 338 338 341 348 350 347 347 348 348 348 347 348 349 348 349 349 347 346 345 344 344 344 344 344 343 344 344 344 347 348 350 350 350 350 352 351 352 354 353 352 351 352 355 355 352 351 352 353 354 356 358 357 356 357 360 362 362 362 360 358 356 354 353 352 351 349 348 350 352 352
319 321 320 321 321 319 321 328 331 329 330 333 331 332 335 336 338 342 343 345 349 349 347 348 349 348 346 346 347 346 347 348 347 346 347 345 344 344 344 344 344 343 343 343 344 345 346 349 351 351 351 351 352 353 353 354 353 352 352 353 351 348 349 352 353 354 355 357 358 359 360 361 361 361 362 361 359 358 356 354 354 353 350 349 351 352 351
318 321 322 322 320 319 323 333 332 327 331 335 334 334 336 339 343 347 348 349 350 348 348 348 348 347 346 344 345 345 346 347 346 345 346 344 344 344 344 345 345 344 344 345 344 346 347 347 349 351 351 351 352 353 354 354 354 354 354 354 352 350 350 351 352 353 354 355 355 356 358 359 360 361 361 361 361 359 358 356 355 354 352 351 352 353 352
320 323 322 319 320 324 330 332 328 328 330 333 336 338 339 341 345 347 347 347 347 346 345 345 346 345 343 342 343 344 344 345 346 345 344 344 344 344 344 344 344 344 345 345 344 346 346 347 348 350 351 351 352 353 354 354 354 354 354 354 353 351 349 349 351 353 355 356 356 356 356 357 358 358 358 360 359 358 358 356 355 354 353 353 353 352 351
323 322 319 318 321 329 334 331 328 331 333 332 335 339 341 342 344 347 347 344 344 343 342 343 344 343 342 342 344 343 341 342 344 343 343 344 343 343 344 344 343 343 344 343 343 343 344 345 346 347 348 349 350 350 350 350 350 351 352 351 350 350 349 349 350 352 354 356 355 355 356 356 356 356 356 356 356 355 355 355 354 353 353 353 352 352 351
320 316 316 320 321 324 331 333 332 332 332 333 338 340 341 342 343 345 346 343 343 343 342 343 342 341 343 345 345 343 339 339 342 342 342 343 343 342 342 342 342 342 342 342 342 341 341 342 342 343 343 344 344 343 343 344 344 345 346 346 346 346 347 348 349 350 351 352 351 352 352 353 353 353 353 353 353 353 353 353 354 353 352 352 352 353 352
322 317 317 320 319 321 330 336 334 331 328 331 339 344 343 343 341 343 345 344 343 343 343 342 340 342 347 347 345 343 340 339 342 341 339 340 342 342 341 342 341 340 340 340 339 338 339 340 340 341 341 341 340 340 339 340 341 342 342 342 342 343 344 345 347 348 348 348 349 349 349 349 349 349 349 350 351 351 351 352 353 353 353 353 352 353 353
321 318 317 319 318 324 337 339 333 329 328 331 336 338 339 343 342 342 344 344 343 342 341 340 340 345 350 349 346 344 341 340 341 342 340 339 340 341 340 340 340 338 337 336 335 336 337 337 338 338 338 339 338 338 338 339 339 340 340 341 341 341 341 343 344 345 345 345 346 346 345 345 345 346 346 346 346 347 347 349 351 353 353 351 349 350 349
320 319 317 315 318 331 344 340 333 329 329 334 334 329 334 342 342 341 344 343 343 342 340 339 343 347 351 350 346 343 341 340 340 341 342 339 338 338 337 337 338 336 335 334 334 334 334 334 334 335 335 336 336 336 337 338 338 339 339 340 340 340 340 340 341 342 342 343 343 343 343 343 343 344 344 344 344 345 347 348 349 348 347 346 345 343 342
319 321 317 316 326 341 343 338 340 338 334 334 330 329 339 346 343 342 344 343 342 342 341 342 346 347 346 346 343 339 339 341 340 339 340 338 335 334 334 334 336 334 333 333 333 333 333 332 332 331 331 332 332 333 335 336 337 338 338 339 339 339 339 339 339 339 339 339 340 340 340 341 341 342 342 342 342 344 344 343 340 336 336 338 338 336 334
320 321 318 319 334 347 341 337 342 341 339 338 335 338 347 348 344 344 344 343 343 343 342 344 346 345 344 343 343 339 338 340 340 338 338 337 333 333 333 332 333 332 330 330 330 331 332 332 332 332 331 331 331 331 332 334 334 336 336 337 337 336 337 338 337 337 337 337 337 337 337 338 338 338 338 339 339 339 339 337 334 331 331 332 331 329 328
324 322 319 321 333 343 339 338 342 341 343 347 346 345 347 345 345 345 344 343 344 343 343 344 343 342 342 342 342 339 337 341 340 337 337 336 333 333 333 331 331 331 330 329 329 330 332 332 331 331 331 331 331 331 331 332 332 332 333 333 333 333 334 334 335 335 335 335 335 335 335 335 334 334 335 335 335 335 336 335 333 330 329 329 328 327 327
326 323 327 335 345 348 341 340 343 342 345 350 348 346 346 346 345 345 344 345 344 342 343 343 341 341 342 341 340 338 336 339 338 335 336 335 333 334 333 332 331 331 331 331 332 332 333 332 329 328 328 329 329 329 330 331 331 331 332 332 332 332 332 332 332 332 332 332 333 333 333 333 333 332 332 332 332 332 333 332 330 327 326 326 325 324 325
331 331 339 346 348 346 341 339 343 343 343 345 344 345 347 346 344 343 345 346 344 341 341 342 341 342 341 339 338 336 335 336 334 333 334 333 331 332 333 332 332 332 332 333 334 334 334 332 330 329 329 327 327 326 327 329 330 330 330 330 330 331 330 330 329 329 330 330 329 330 330 330 330 329 330 330 330 330 330 329 328 327 325 325 323 321 320
334 335 342 344 341 339 337 337 342 343 341 341 342 343 346 345 343 343 344 343 342 340 340 340 341 340 339 337 337 337 337 336 333 332 332 331 329 331 332 332 332 332 333 334 334 335 335 334 334 334 333 331 328 326 324 325 326 326 326 327 327 326 326 327 327 327 326 326 326 327 328 327 327 327 327 327 327 327 329 329 329 329 328 327 326 324 321
332 330 338 342 339 338 338 339 342 343 342 343 344 345 346 345 343 343 342 342 340 338 338 339 339 338 337 336 335 336 337 336 334 334 334 333 331 330 331 331 331 331 332 333 333 334 335 335 334 334 334 333 331 329 327 326 325 325 326 327 327 325 323 322 322 320 319 318 318 319 320 321 321 321 322 324 323 323 325 327 328 329 329 329 328 328 327
335 337 340 342 340 340 341 342 344 344 343 345 346 345 345 345 343 341 340 339 338 336 335 336 335 333 334 334 334 335 336 336 335 334 335 334 333 332 331 330 330 330 331 331 331 332 333 333 332 332 333 332 330 330 330 329 327 326 326 326 328 327 325 322 320 318 315 313 312 312 312 312 312 312 313 315 315 315 317 320 323 324 323 322 323 324 327
336 340 341 341 342 344 343 343 344 345 345 345 345 343 344 343 341 339 338 337 335 334 333 332 331 330 331 332 332 334 337 337 335 334 334 334 334 334 333 332 331 331 331 331 332 332 331 331 332 332 332 332 330 329 330 329 329 328 327 327 327 327 326 325 323 321 319 316 312 311 311 311 311 312 311 311 310 310 311 313 315 316 315 313 314 315 318
340 345 347 347 346 346 346 345 344 344 344 344 344 343 342 342 340 339 338 335 333 332 331 330 330 330 329 329 331 334 337 337 335 334 334 334 334 335 335 333 333 333 333 333 332 331 331 331 331 331 331 331 330 328 328 328 328 328 328 329 328 326 325 324 323 321 321 320 317 314 312 312 313 314 314 313 313 312 312 311 311 310 310 311 312 313 314
344 346 348 348 346 347 347 345 343 343 343 343 343 343 342 341 339 338 336 335 334 333 330 328 330 331 331 330 332 335 335 334 333 333 333 333 334 334 334 335 334 334 334 333 332 331 331 331 331 330 330 330 329 327 326 327 328 328 328 328 329 328 327 325 324 323 323 324 323 320 317 316 315 316 316 316 315 314 313 313 313 313 313 315 317 319 320
346 344 346 348 347 347 346 343 342 343 342 341 342 341 340 341 338 336 335 335 333 333 332 331 331 332 332 332 334 334 332 332 332 331 331 332 333 332 333 334 334 334 334 333 332 332 331 330 330 330 330 330 329 327 327 326 326 327 328 328 329 329 329 328 328 327 326 327 327 325 323 321 319 319 320 319 318 316 315 314 313 314 314 315 317 320 322
349 347 347 347 345 345 345 342 341 342 340 340 341 340 338 338 336 333 334 333 332 333 334 332 331 331 332 333 333 331 330 331 331 330 330 331 332 333 332 332 333 334 334 333 332 331 330 329 329 328 328 328 328 328 328 328 327 326 327 328 329 329 329 329 329 329 329 329 328 328 327 325 322 322 322 322 321 320 318 316 314 313 314 314 314 317 320
346 346 344 343 343 344 342 341 342 341 338 338 340 339 337 336 334 331 331 331 331 331 330 329 329 331 332 332 331 330 329 330 330 330 329 328 330 332 333 332 333 333 333 332 330 329 328 326 325 324 324 325 326 327 327 327 327 326 327 328 328 329 329 328 328 328 328 326 325 326 328 328 325 324 324 324 324 324 323 321 318 315 314 314 313 314 317
342 343 342 342 343 342 341 342 343 341 337 336 338 338 336 334 333 331 330 330 329 328 327 328 330 332 332 332 331 331 330 329 329 329 329 329 330 332 332 332 333 332 332 331 329 326 324 323 322 321 320 321 323 324 325 325 324 326 327 327 327 327 327 326 326 326 326 324 322 323 325 327 327 326 326 326 327 327 326 325 322 318 317 316 315 313 314
341 344 343 342 343 342 341 341 339 338 337 336 336 336 335 333 333 332 332 333 332 330 330 330 331 331 331 331 331 331 331 331 329 329 330 329 329 330 331 332 332 332 330 329 326 324 322 321 320 320 320 319 320 321 322 323 324 325 326 325 324 323 322 322 323 325 326 326 325 323 323 325 326 326 325 326 326 327 327 326 325 322 320 319 317 314 314
341 343 342 342 343 343 341 338 337 338 338 337 335 335 334 333 334 334 334 334 333 333 333 332 332 331 331 332 332 332 332 331 330 330 330 329 329 330 331 331 331 330 328 326 324 322 321 320 320 320 320 320 319 319 319 322 324 325 324 323 322 321 319 318 320 323 325 326 326 325 324 325 325 325 324 323 324 325 326 326 326 325 323 322 320 318 315
344 342 340 341 342 341 339 339 339 339 338 337 337 336 334 334 335 336 335 334 333 333 333 333 333 333 332 332 332 331 331 331 330 329 329 328 329 329 329 329 329 328 326 325 323 322 320 319 320 320 321 320 320 318 319 322 322 322 323 324 322 319 319 319 320 321 322 323 323 323 323 324 325 326 325 323 322 323 325 326 326 326 324 324 323 320 318
346 344 343 342 341 339 339 340 340 339 338 338 337 336 336 335 336 336 337 337 335 334 333 333 333 334 333 332 331 330 330 329 328 327 327 328 328 328 328 328 328 327 326 324 322 321 320 319 320 320 321 321 320 318 319 322 322 320 321 323 321 319 319 320 318 317 318 320 320 320 320 322 323 324 324 324 323 324 324 325 326 326 325 326 326 323 320
343 344 345 344 341 339 340 341 340 339 338 337 337 337 337 337 336 336 336 336 335 334 334 333 334 334 332 331 331 330 328 327 325 324 326 327 327 327 327 327 327 326 325 324 323 322 321 321 320 320 321 321 320 318 318 320 322 321 319 319 319 318 319 318 317 316 318 319 320 320 321 322 322 323 323 323 323 322 322 323 324 324 324 325 326 325 323
341 342 344 343 341 340 341 341 339 338 338 338 337 336 335 335 334 333 333 333 333 333 334 334 334 333 332 331 330 328 326 324 323 324 326 327 327 327 326 326 325 324 323 322 323 322 322 321 321 321 321 321 320 318 316 317 320 320 319 318 318 318 318 317 317 317 319 319 319 320 321 321 321 320 319 319 320 320 320 319 320 322 323 324 325 324 324
341 340 341 344 344 342 340 340 340 339 338 338 336 334 333 334 333 332 332 332 332 333 334 334 334 332 330 329 327 324 324 324 324 324 325 325 325 325 324 323 323 322 321 321 322 321 320 319 318 319 320 321 320 318 315 313 315 317 317 318 319 319 318 318 317 318 318 319 319 319 319 318 318 318 317 317 317 318 318 317 317 319 322 323 324 323 323
340 339 339 340 340 340 340 339 339 338 337 337 337 335 334 334 334 333 333 333 333 333 333 333 332 330 328 325 324 323 324 324 324 323 323 323 323 323 322 322 322 322 322 322 321 320 320 318 316 317 319 320 319 318 314 310 310 314 318 319 319 318 317 317 317 318 318 319 319 318 317 317 317 318 318 317 317 318 318 318 318 318 320 322 323 323 323
336 337 338 336 333 333 334 336 336 335 335 336 336 336 335 335 334 334 333 334 334 334 333 333 332 329 326 324 323 323 324 324 324 323 323 323 323 322 321 321 322 322 322 322 321 319 319 317 315 316 319 318 318 317 314 309 310 316 319 318 317 317 316 316 317 317 317 317 317 317 317 317 317 316 316 317 317 317 317 317 318 317 318 319 321 322 322
334 334 335 334 331 330 331 334 335 334 333 333 334 334 334 334 334 334 334 335 335 334 333 332 331 327 325 323 323 323 325 325 324 324 324 323 323 322 321 321 322 323 323 322 320 319 318 316 315 317 319 317 317 317 314 310 312 318 319 316 316 316 315 315 316 316 316 316 316 316 316 316 316 316 316 316 317 316 316 317 317 317 317 318 319 321 322
335 333 333 332 331 331 332 334 335 333 333 334 334 333 333 334 334 334 334 334 333 333 332 330 327 324 323 324 324 324 325 325 324 324 324 323 322 323 323 322 323 323 322 320 318 317 316 315 316 317 317 315 315 316 313 311 314 317 317 315 315 315 315 315 315 315 315 315 315 315 315 315 315 315 316 316 316 316 317 317 317 317 318 318 319 320 321
339 338 336 335 333 332 332 333 333 332 333 335 334 332 333 335 334 333 333 333 332 331 329 326 323 323 324 325 325 325 325 324 324 323 323 322 322 322 322 321 322 321 320 318 316 313 311 313 316 317 315 315 316 315 312 312 315 317 315 314 315 315 314 314 314 314 314 314 314 314 314 314 314 315 315 316 316 316 316 316 317 316 317 318 318 319 319
343 340 338 336 334 332 332 332 331 331 333 335 334 333 334 334 332 332 333 331 329 327 326 323 323 325 326 325 325 325 324 323 323 323 322 322 322 322 320 318 319 319 318 318 316 313 311 313 316 316 315 315 315 313 311 312 315 316 315 314 314 314 314 314 313 313 313 314 313 313 313 314 314 315 315 315 315 315 315 315 316 315 315 316 316 316 316
341 338 336 334 332 330 330 331 331 330 332 333 334 334 333 333 332 332 331 328 326 326 325 324 325 326 325 324 324 325 324 323 323 323 321 321 322 322 320 318 317 318 317 317 315 312 311 313 315 316 315 314 312 310 310 312 314 314 314 313 313 313 313 313 312 313 313 313 312 312 313 313 314 314 313 313 313 313 313 314 314 314 314 314 314 313 314
339 337 336 335 333 331 330 331 331 330 330 332 333 334 333 332 332 331 329 326 326 326 325 324 325 325 324 324 324 324 323 323 323 322 320 320 321 322 320 318 317 317 316 315 313 311 311 313 315 314 313 311 309 308 310 312 313 313 313 312 312 312 312 312 312 312 312 312 311 311 312 312 312 312 312 312 312 312 312 312 312 313 313 313 313 313 312
335 334 335 336 334 332 331 330 331 331 330 330 332 333 332 331 332 331 328 326 327 326 325 325 326 325 324 324 324 324 324 324 322 320 320 321 322 321 319 318 317 317 315 313 312 312 313 314 314 312 310 308 308 309 311 313 313 312 312 312 312 312 311 311 311 311 311 311 311 311 311 311 311 311 311 311 310 311 311 310 310 310 311 311 311 311 311
332 331 332 334 333 332 331 330 330 330 329 329 330 331 331 331 331 330 328 327 327 326 325 325 326 326 325 325 324 324 324 323 321 320 320 320 320 320 319 318 318 317 315 313 313 314 314 314 314 313 310 308 307 309 311 312 312 312 311 311 311 311 311 310 310 310 310 310 310 310 310 311 310 310 310 310 309 309 309 309 309 309 309 309 309 308 308
331 330 330 332 332 332 331 330 329 329 329 329 328 329 330 331 330 329 328 328 328 326 325 325 326 326 325 325 324 323 323 322 321 320 320 319 319 319 318 317 315 315 313 313 313 314 314 314 314 312 310 307 307 309 312 312 312 311 311 311 311 311 310 310 310 310 309 309 309 309 310 310 309 309 309 309 309 309 309 309 308 308 308 307 307 306 306
331 330 330 331 331 330 329 329 329 328 328 329 328 328 329 331 330 329 328 328 327 326 325 326 326 326 325 325 324 323 322 321 319 319 319 319 319 318 318 316 314 312 311 312 314 314 314 313 312 311 308 307 308 311 312 312 312 312 312 311 311 310 310 310 309 309 309 309 308 308 309 309 309 309 309 309 309 308 308 308 308 308 308 307 307 306 306
331 331 330 330 329 328 328 328 328 328 328 329 329 328 329 330 330 329 328 328 327 326 326 325 325 325 325 324 324 323 321 320 318 318 318 319 318 317 317 316 313 310 310 313 314 313 311 311 310 308 307 308 310 312 312 311 311 311 311 311 311 310 309 309 309 309 309 308 308 308 308 308 308 308 308 308 308 308 306 306 306 306 307 308 307 306 306
332 331 330 329 329 328 327 328 328 329 329 329 328 327 328 328 328 328 328 328 327 326 326 326 325 325 325 324 323 321 320 320 318 317 317 318 318 317 315 314 311 309 310 313 313 311 310 308 307 306 307 309 311 312 311 311 311 311 310 310 310 309 308 309 309 309 309 308 308 308 308 308 307 306 306 307 307 307 306 304 304 304 306 307 307 306 306
331 330 329 328 328 327 327 327 328 328 328 327 327 326 326 326 326 326 327 327 327 326 326 325 325 324 324 323 321 320 319 319 318 317 316 317 316 315 314 313 311 309 309 311 312 311 310 308 307 307 308 310 311 311 311 311 310 310 310 310 309 309 308 308 308 307 307 307 307 306 306 306 305 304 304 305 305 305 304 304 304 304 305 305 305 305 305
328 328 327 327 327 326 326 326 325 325 326 326 326 326 326 326 325 325 325 325 325 325 325 324 324 323 323 321 320 319 318 318 317 316 316 315 314 313 313 313 311 310 309 310 310 309 307 307 308 309 310 310 310 310 310 310 309 308 308 308 308 308 307 307 306 306 306 306 306 305 305 305 305 305 304 305 304 304 303 304 304 304 304 304 304 304 303
326 327 327 327 327 327 326 325 325 325 326 327 326 326 326 325 325 325 325 325 324 324 324 323 322 322 320 319 317 317 316 316 316 315 314 314 313 313 313 312 311 310 311 311 309 306 305 306 308 310 310 310 310 310 309 309 308 307 307 308 308 307 307 306 307 307 306 305 305 305 305 305 305 305 305 304 304 304 303 304 303 303 303 303 303 303 302
326 326 326 326 327 327 326 326 326 327 327 326 325 325 325 325 324 324 325 324 324 323 323 321 320 319 318 317 316 316 315 316 315 315 314 313 313 313 312 311 309 310 311 311 309 306 306 308 309 309 309 310 310 309 308 308 308 307 307 307 307 307 306 306 306 306 306 305 305 305 305 305 305 305 304 304 304 304 304 304 304 303 303 303 303 303 302
Wind_Speed
6 8 9 10 8 7 7 5 2 2 2 3 5 4 2 7 4 4 4 4 5 2 1 3 3 3 3 4 5 5 6 5 4 5 6 7 8 8 7 7 6 6 6 5 4 2 5 11 17 18 17 16 15 13 14 9 3 4 6 6 10 12 10 7 2 8 8 4 2 5 6 7 10 12 11 9 8 7 5 5 7 8 9 10 11 13 13
7 8 9 9 8 7 8 6 1 1 1 3 6 6 3 7 4 2 4 7 6 2 2 4 3 3 2 2 4 4 5 6 5 5 6 7 7 8 7 8 8 6 6 7 7 3 5 11 18 18 16 15 15 15 16 14 8 9 10 8 10 12 11 6 2 1 4 7 8 11 12 9 6 7 8 8 8 8 7 6 6 7 8 8 10 11 11
5 7 8 8 8 8 7 5 4 7 6 4 5 6 3 5 4 4 6 6 5 3 3 4 2 1 2 1 4 4 5 6 6 5 6 6 6 6 7 7 7 7 7 8 8 7 6 9 19 20 14 13 14 14 15 16 14 12 12 11 8 5 5 5 3 3 7 10 11 13 14 11 7 5 7 8 9 10 10 8 7 7 7 8 9 10 11
4 5 8 9 7 6 6 5 7 8 5 2 3 4 3 3 2 2 3 4 3 3 4 3 2 2 4 4 4 5 5 5 6 6 6 5 5 6 7 5 5 6 6 7 7 10 13 7 19 22 14 12 13 13 13 13 13 12 12 12 7 6 5 2 3 5 5 7 10 13 14 12 9 6 7 9 10 12 13 12 10 8 8 8 10 11 11
3 3 7 10 10 7 5 3 3 5 3 3 3 4 5 7 4 2 3 3 3 4 5 3 2 3 5 4 3 4 5 5 6 5 5 5 5 5 5 4 4 3 2 5 7 10 14 16 20 18 13 13 13 13 14 12 8 6 4 3 4 8 6 1 7 8 6 5 7 11 13 11 8 7 9 10 10 12 12 12 11 10 9 10 11 12 12
3 5 5 7 8 4 3 4 1 3 4 4 5 5 8 10 6 5 5 4 4 4 4 4 3 3 3 2 2 3 3 3 4 4 5 5 4 4 5 4 4 2 1 4 9 12 14 16 16 12 10 11 11 11 13 12 7 3 3 5 6 7 9 8 9 7 4 6 8 10 10 10 8 8 9 9 7 8 9 10 10 9 9 11 13 13 13
2 4 2 2 3 4 5 5 1 5 7 6 7 9 10 9 7 8 9 7 6 5 4 4 4 4 3 1 2 3 4 4 4 4 4 4 3 3 4 4 4 4 7 10 12 15 17 18 16 14 12 12 13 14 13 12 10 7 5 7 8 8 9 9 8 4 2 5 7 6 6 7 8 9 9 8 6 5 7 8 8 8 9 11 14 15 14
1 3 2 0 3 5 1 4 4 6 8 4 5 8 8 7 7 8 10 8 6 5 4 3 3 4 4 2 2 4 5 5 4 2 2 3 4 3 3 3 4 7 12 14 15 18 21 21 20 19 18 18 20 21 19 17 16 13 11 11 11 9 8 6 5 3 2 3 5 5 4 5 7 8 8 8 9 9 7 8 8 9 9 11 14 15 15
2 1 3 3 5 6 2 3 2 3 5 3 5 5 2 3 5 7 9 9 6 5 5 4 3 3 3 3 2 3 4 3 4 3 1 2 2 2 3 4 6 10 15 17 17 20 22 22 21 20 19 19 21 22 22 20 19 17 14 12 11 10 10 9 7 5 3 2 3 4 4 3 3 5 5 7 9 11 12 11 11 10 9 11 14 15 16
2 1 3 3 3 4 2 2 2 4 6 5 7 6 1 3 4 6 9 9 7 6 5 4 2 2 2 2 1 2 4 2 1 2 3 2 3 4 3 6 9 13 17 19 20 21 22 22 20 19 20 21 22 22 20 20 20 19 16 12 10 9 9 9 9 7 6 5 4 3 2 2 3 4 5 7 9 12 14 14 13 11 10 13 15 16 18
2 2 1 3 2 2 3 3 0 5 6 5 7 6 1 3 3 6 9 8 7 6 6 5 3 2 2 1 2 2 4 4 3 3 0 2 1 5 5 7 12 15 18 20 21 22 22 21 19 19 21 23 24 22 19 20 21 20 18 15 12 11 11 11 10 9 9 10 9 8 7 6 5 4 4 6 8 11 12 14 16 15 13 16 18 19 19
3 3 2 3 1 1 3 2 4 6 7 7 6 3 3 3 3 5 7 8 7 6 6 5 4 4 4 3 3 4 6 5 5 5 4 1 1 4 6 9 14 17 18 19 20 21 21 20 18 20 22 24 23 21 19 20 20 19 18 17 17 16 17 18 17 15 14 14 12 11 10 7 5 4 3 4 5 5 6 6 11 13 16 22 23 21 19
4 4 4 3 1 2 4 4 7 6 6 6 3 3 5 3 4 4 5 8 7 7 7 5 4 4 2 2 3 5 6 5 5 7 7 6 6 7 8 12 16 18 18 19 21 21 20 19 19 20 23 24 22 20 20 21 19 17 18 19 20 20 20 21 22 21 20 19 17 16 14 12 10 9 9 8 7 8 9 11 12 15 21 26 26 22 18
3 4 4 2 1 3 4 3 6 6 4 1 2 4 4 4 5 5 5 7 6 6 6 4 3 3 3 1 2 4 5 6 5 7 8 9 10 8 8 13 17 17 18 20 21 21 20 20 19 20 22 22 20 19 21 21 19 19 19 20 22 23 24 24 24 23 23 22 21 20 18 17 17 16 16 16 16 16 18 19 20 21 23 25 24 21 17
2 2 2 1 1 4 3 3 5 4 1 4 4 4 5 4 4 5 5 6 6 5 5 4 4 5 4 1 1 2 4 4 2 5 8 10 13 11 10 15 16 16 18 19 19 19 19 19 19 19 21 21 19 20 21 19 19 20 22 23 24 24 24 24 24 24 23 23 23 22 21 21 21 21 20 19 19 19 19 20 21 22 22 22 21 20 18
0 1 1 2 4 5 1 4 3 1 1 4 5 6 5 3 3 4 4 5 6 6 6 6 6 5 4 3 4 4 4 5 4 3 7 11 14 13 14 16 15 15 18 18 17 18 18 18 19 20 21 21 20 21 20 18 19 20 20 20 21 21 21 21 21 22 21 21 21 21 20 20 21 21 21 21 22 21 21 22 23 22 21 21 20 20 19
2 2 4 5 5 3 4 5 5 4 3 5 6 6 5 4 2 3 5 5 6 6 7 7 6 4 5 5 4 4 4 4 5 5 3 7 12 14 17 18 15 16 20 19 17 18 17 17 19 20 21 21 21 20 19 18 20 21 21 21 21 20 20 20 20 20 20 19 20 20 20 20 20 20 20 20 20 20 20 22 23 22 21 20 20 20 20
2 1 3 4 4 6 7 6 5 6 5 5 5 6 6 5 3 4 6 6 6 7 7 6 6 4 5 5 4 4 5 4 5 11 12 9 12 17 16 15 14 16 18 18 17 17 16 16 16 17 18 19 19 19 19 19 21 22 22 24 24 24 23 22 21 21 22 21 20 20 20 21 21 21 20 20 19 18 17 17 18 18 18 17 17 17 17
1 1 3 6 8 8 9 7 5 6 5 4 5 5 5 5 5 6 7 7 7 7 7 7 7 5 5 6 5 5 5 5 7 11 13 13 15 20 21 21 21 20 19 17 16 16 15 15 16 16 16 17 17 15 14 15 17 19 20 22 23 24 25 25 24 24 25 24 24 23 23 22 22 21 21 20 21 21 19 17 16 15 15 14 14 13 12
3 2 3 7 8 8 9 7 5 5 6 5 5 6 5 6 7 7 8 8 7 7 6 7 8 7 6 7 6 4 5 5 7 11 13 14 17 20 22 24 25 23 21 19 19 20 19 18 18 17 18 19 19 17 13 10 11 13 16 18 19 21 22 23 23 23 24 24 25 25 24 24 25 24 23 22 22 21 20 18 17 15 14 13 12 11 11
1 2 4 7 8 7 6 6 5 5 6 5 6 6 7 7 8 9 9 9 8 8 8 7 8 9 8 7 6 4 3 5 7 10 13 16 18 20 21 22 22 22 20 18 19 20 20 20 20 20 20 21 22 21 19 16 14 14 15 17 18 19 20 20 20 19 20 21 23 24 25 25 26 25 24 24 24 23 21 18 16 15 14 13 12 11 11
1 0 1 2 4 4 3 5 7 6 6 7 7 7 7 8 8 9 9 9 9 11 11 9 8 8 8 8 6 5 5 8 10 11 14 16 18 18 18 19 20 20 18 19 20 19 18 20 21 21 21 21 21 22 23 22 21 20 21 21 21 20 19 19 18 17 17 17 18 20 22 23 24 24 24 23 24 24 22 21 19 17 16 16 14 13 14
2 3 4 2 5 4 4 5 7 6 6 6 7 7 8 8 8 9 10 9 9 9 11 11 10 7 8 9 9 7 8 11 14 16 17 18 17 15 15 15 16 17 18 18 19 19 18 19 20 19 19 19 20 22 22 23 23 22 22 22 21 19 18 17 16 16 16 15 14 15 17 19 20 21 21 21 22 22 22 22 20 19 19 18 16 15 16
1 2 4 5 5 5 5 6 6 6 6 6 7 8 8 7 8 9 10 9 9 8 8 10 12 11 11 13 13 11 10 14 17 17 17 17 16 14 14 14 13 14 15 15 15 15 17 17 17 18 18 17 17 18 18 19 19 18 18 19 18 17 16 15 13 13 12 12 11 10 11 12 14 16 17 18 19 19 20 20 20 19 18 18 17 17 16
3 1 4 6 6 6 6 5 5 5 5 6 7 7 8 7 7 8 9 10 11 11 8 8 12 15 15 16 16 14 13 15 16 14 13 13 13 13 13 12 11 10 12 13 15 16 17 17 17 18 18 16 13 13 14 15 15 15 15 16 15 15 16 16 15 14 12 10 9 7 7 8 8 9 11 13 14 15 17 17 17 18 18 17 16 16 15
5 4 7 8 7 7 6 5 5 5 6 7 7 7 8 9 9 11 13 14 15 15 13 11 13 17 20 19 17 17 16 15 14 13 11 8 7 8 9 10 10 10 12 14 16 17 17 18 18 19 18 15 13 12 12 12 13 13 13 15 15 15 15 15 15 14 12 10 9 8 7 7 5 5 6 8 8 9 12 14 14 14 15 16 15 14 13
6 7 8 8 6 6 5 5 5 6 7 9 8 8 11 14 13 13 15 15 16 18 18 17 18 19 20 20 19 18 18 15 13 11 10 8 7 7 9 10 12 12 12 14 16 16 17 17 17 17 18 16 15 15 14 13 14 15 14 14 16 16 15 14 12 11 10 10 10 9 9 9 6 3 2 3 3 4 7 10 11 11 12 13 13 13 12
6 6 7 7 7 7 7 6 7 7 8 10 10 11 13 14 12 11 10 10 13 16 18 20 21 19 17 17 18 17 16 15 13 11 10 11 11 10 10 12 14 14 13 15 17 17 17 17 17 17 17 15 13 14 15 16 17 17 16 14 14 14 14 12 11 11 10 9 9 8 8 8 7 5 3 3 2 3 7 8 7 8 9 11 11 11 11
7 6 5 5 6 8 8 8 7 7 8 10 12 12 12 11 10 8 7 8 11 13 14 17 19 18 16 16 16 14 13 13 13 13 12 12 12 11 11 13 14 15 15 16 16 15 15 16 16 16 16 14 11 11 13 16 17 16 15 15 14 14 13 11 10 11 11 9 7 6 6 7 7 6 5 6 5 4 5 8 7 6 7 8 8 10 10
6 7 6 5 7 10 10 9 8 7 8 10 10 9 10 10 9 8 7 9 10 10 12 15 17 16 15 15 15 15 15 14 13 13 12 11 12 14 16 16 16 16 17 16 15 13 13 13 14 15 15 14 11 9 11 15 17 16 15 15 14 14 13 12 10 10 10 8 7 7 8 9 9 7 7 9 10 9 4 4 7 6 5 5 7 9 10
7 8 8 8 9 10 9 8 7 7 7 9 9 9 9 9 10 9 8 7 8 9 12 16 16 15 15 16 16 17 17 14 12 12 12 12 12 15 18 18 16 16 16 16 14 12 11 11 12 12 13 13 11 10 11 14 16 15 14 14 13 12 11 10 10 10 8 7 8 9 10 12 12 11 12 13 14 14 12 9 5 3 3 4 6 8 9
8 9 9 9 9 9 8 7 7 7 7 8 9 8 7 8 10 10 8 7 9 11 13 15 14 15 17 19 19 17 16 15 15 15 15 15 14 15 17 18 18 18 17 16 14 12 12 12 11 10 11 11 10 8 10 12 14 14 13 12 12 11 10 9 9 10 10 10 11 12 13 13 14 14 15 15 15 15 15 14 12 10 8 3 5 7 7
10 9 8 9 9 9 8 7 7 7 8 8 8 7 7 8 10 10 10 11 12 12 13 14 15 17 20 20 19 18 18 18 17 15 15 15 15 16 16 16 16 15 15 14 14 13 13 13 12 10 10 9 8 8 8 9 10 10 10 10 10 10 10 8 8 10 11 12 12 14 15 14 14 14 14 14 15 14 14 14 13 10 8 5 6 7 6
9 10 9 8 8 8 9 8 7 6 6 7 7 7 7 10 12 13 14 14 13 12 13 16 18 20 20 19 18 19 19 16 13 13 14 15 15 15 14 13 13 13 13 14 14 14 12 10 9 9 9 9 8 9 9 8 7 7 7 8 8 8 8 7 7 8 10 11 12 14 15 14 13 13 12 12 12 11 10 11 12 11 7 1 6 8 7
9 10 10 9 8 8 7 6 6 7 6 6 7 7 8 11 14 15 16 16 15 14 17 20 20 20 21 20 18 18 16 14 14 14 15 14 14 14 13 12 12 13 13 13 12 11 9 7 6 7 8 7 7 10 10 8 7 7 7 7 8 8 7 7 7 8 9 10 10 12 13 13 13 13 12 12 12 12 11 11 12 14 14 7 3 5 6
12 12 9 8 10 11 8 6 7 9 7 6 7 9 11 14 16 16 17 17 17 17 20 21 20 19 19 19 19 18 17 17 17 17 15 15 13 13 13 13 13 14 14 13 10 9 8 8 7 7 8 8 9 10 10 8 7 8 8 9 9 8 6 6 7 9 10 10 8 8 10 10 11 11 11 10 11 12 13 12 13 16 18 15 9 3 2
13 13 9 7 10 12 10 9 10 11 10 10 11 13 13 14 17 19 20 18 17 20 22 21 19 19 19 19 19 20 20 20 19 18 17 17 14 13 13 14 14 15 15 14 10 8 8 8 7 6 6 7 8 9 9 6 5 7 9 9 7 5 6 7 8 8 9 9 8 8 9 10 11 13 14 14 15 16 17 16 16 17 18 19 18 12 5
13 14 13 12 14 14 13 14 15 14 12 12 15 18 18 17 18 21 22 19 20 22 21 19 19 20 19 18 19 21 22 22 20 18 17 15 12 11 11 10 10 13 17 16 12 9 8 8 8 6 5 5 6 6 6 4 4 6 8 7 6 6 7 9 10 10 11 12 11 11 11 12 16 19 21 21 22 23 23 22 23 22 20 20 20 18 14
9 11 13 14 15 14 14 16 17 16 16 15 16 19 20 20 20 21 21 21 23 23 21 20 21 20 17 16 18 21 22 22 20 18 16 13 11 11 12 11 12 16 18 16 11 9 9 9 9 6 5 5 4 2 2 3 4 6 8 8 7 9 10 11 12 13 13 12 12 13 13 14 17 20 21 22 23 24 24 24 25 24 22 20 19 19 18
5 8 11 13 13 13 13 14 15 17 19 19 18 20 22 23 21 20 20 22 25 24 22 21 20 17 16 17 18 19 20 21 20 17 14 13 13 14 14 14 14 14 13 10 8 7 8 10 9 7 6 5 3 0 1 2 4 7 8 8 7 8 9 11 12 13 12 11 13 16 17 17 18 20 20 21 22 22 22 22 24 24 23 21 20 20 19
6 9 12 13 13 14 15 15 15 17 19 19 19 22 25 26 23 19 20 24 26 24 23 23 20 18 18 20 19 19 20 20 18 16 14 13 15 15 14 13 13 13 11 8 5 5 8 10 11 9 7 4 2 1 3 3 6 9 8 7 6 7 9 11 13 14 14 14 15 17 17 19 21 22 21 21 21 22 21 21 22 22 22 21 20 19 19
8 10 12 12 13 15 17 16 17 17 18 20 22 24 25 26 23 21 23 26 26 24 23 23 22 21 21 21 20 19 19 18 17 16 14 11 11 12 13 14 14 12 10 6 5 6 8 9 8 8 5 3 2 4 4 5 8 9 9 9 9 11 13 14 15 15 15 15 16 17 18 19 21 21 21 20 19 20 20 19 19 19 20 20 18 17 17
10 11 10 10 13 17 17 16 16 18 18 19 23 26 26 25 23 22 24 26 25 24 25 24 22 23 24 23 20 18 17 17 17 16 13 9 6 8 13 17 15 10 8 7 7 7 9 8 7 5 4 2 3 5 5 8 9 9 9 10 11 11 11 12 14 14 14 14 15 15 15 16 16 16 16 16 15 15 15 16 15 14 15 15 14 13 13
13 13 11 11 14 17 17 16 16 17 17 18 21 24 25 25 23 23 25 25 24 25 26 24 23 24 25 24 21 19 18 18 18 16 14 11 8 8 13 16 14 10 9 9 7 7 9 11 9 5 3 2 5 5 7 10 10 9 9 9 9 9 9 11 12 12 12 12 12 11 10 12 13 12 12 11 11 11 11 12 11 10 10 12 13 12 11
13 14 14 15 16 17 17 16 13 12 14 19 22 22 22 23 24 25 25 24 25 26 26 25 24 25 25 23 22 21 20 19 18 17 15 13 12 13 16 15 11 10 11 10 8 8 10 11 8 4 3 4 7 6 7 9 9 9 8 7 6 6 8 10 10 10 9 8 8 7 8 10 10 9 7 8 9 9 9 8 8 9 9 11 12 13 13
13 14 16 17 16 17 18 19 17 15 14 15 16 16 16 17 21 25 26 25 25 26 26 25 25 26 25 23 22 21 20 17 15 14 13 12 13 18 19 15 10 10 12 11 9 8 9 8 5 3 4 8 10 7 8 8 8 7 6 5 4 6 8 9 8 7 6 5 4 4 4 5 6 5 4 5 8 9 9 8 6 6 7 8 10 11 11
14 14 14 14 15 18 20 23 24 22 17 12 11 12 13 13 15 20 24 25 25 25 25 25 25 25 25 24 23 22 21 18 13 10 10 11 15 19 19 14 11 13 13 11 9 8 6 5 4 6 10 13 11 7 7 8 6 5 4 4 3 6 9 8 6 5 4 3 1 0 1 2 4 4 3 5 9 9 9 8 5 4 4 7 6 6 7
13 14 14 14 15 18 20 20 20 19 17 15 15 16 16 15 14 15 18 22 24 23 22 22 23 23 23 23 22 23 23 20 15 11 10 12 16 19 18 15 15 16 14 11 10 7 4 3 7 11 14 13 10 7 6 5 4 4 5 5 5 7 7 6 5 3 2 2 2 0 3 6 6 5 4 5 9 8 7 7 7 5 3 4 4 4 6
17 19 20 18 16 16 17 16 13 12 14 18 19 18 17 17 15 14 17 21 23 22 21 21 21 21 21 21 20 20 20 18 15 14 13 13 15 18 18 17 17 16 12 9 9 6 3 4 9 13 14 12 9 5 2 3 5 6 6 6 7 8 7 4 2 1 1 3 4 6 8 7 5 4 4 7 7 5 4 5 5 5 4 5 7 9 11
20 21 20 19 18 18 18 16 14 13 16 19 21 21 20 19 16 16 19 23 23 21 20 20 20 20 21 20 18 17 16 14 13 15 16 15 16 18 18 17 16 14 11 8 7 6 6 9 13 14 12 8 4 1 1 3 5 6 5 5 7 8 6 4 2 1 1 2 4 5 5 3 2 3 3 5 5 4 3 3 3 4 5 6 7 8 7
19 19 18 20 21 21 21 22 23 24 24 24 25 26 24 21 18 18 21 24 23 21 20 18 18 19 20 18 16 16 15 13 14 18 20 19 18 18 17 16 15 14 12 9 8 7 9 13 16 13 7 1 2 1 4 7 7 5 4 6 7 8 6 5 5 4 2 2 1 1 1 2 2 2 3 5 6 5 4 2 3 5 7 8 6 5 4
19 20 20 20 20 19 18 20 23 25 25 25 27 28 26 22 19 19 21 22 22 22 21 19 18 18 19 18 18 18 16 16 18 21 20 19 17 16 14 14 15 15 14 12 9 8 11 15 14 9 2 1 2 1 5 8 8 7 6 6 6 7 6 6 6 6 4 2 1 1 2 4 3 1 1 3 4 4 4 4 6 8 7 6 5 4 4
Wind_Direction
277 284 292 302 302 296 311 339 79 108 333 332 317 298 145 113 115 219 208 108 109 157 115 80 71 47 37 338 322 337 347 342 337 353 14 24 26 28 22 16 7 344 340 344 336 262 177 150 143 143 146 158 161 135 123 134 193 186 159 191 215 216 218 222 321 1 4 12 249 219 208 200 203 218 231 235 241 244 226 215 217 217 224 223 218 215 215
306 303 301 308 314 306 304 299 241 87 321 292 326 342 94 115 129 171 101 85 90 80 65 82 69 62 80 296 317 351 354 350 356 7 12 23 29 22 18 20 9 354 360 353 342 317 208 169 143 137 142 152 156 147 132 124 142 189 199 213 225 210 197 188 95 62 216 216 220 219 219 221 209 219 239 239 239 244 236 225 225 229 236 232 224 222 220
281 276 274 275 267 259 276 302 24 30 358 329 356 5 41 80 72 62 66 81 89 73 83 93 79 82 92 3 356 16 7 349 352 17 22 20 27 18 11 18 5 359 12 355 351 351 285 196 139 118 117 132 139 141 138 138 152 183 200 197 196 180 160 157 138 156 202 213 222 227 228 231 227 229 249 248 245 248 249 249 244 235 230 219 212 218 222
257 273 290 296 290 288 316 355 44 43 17 23 32 351 359 55 81 75 62 89 113 123 121 95 58 73 62 32 9 7 6 1 2 21 24 7 13 12 1 11 20 15 7 345 358 9 345 17 95 97 101 116 130 140 133 133 155 180 192 184 157 90 57 341 232 206 211 222 231 236 237 234 228 235 252 254 251 251 253 256 252 237 226 213 204 207 210
266 314 323 329 339 340 326 325 40 47 34 54 29 351 30 51 53 86 90 119 134 138 140 118 61 62 54 31 20 8 359 7 7 14 27 9 356 357 349 1 30 32 328 332 9 26 13 31 66 84 101 107 117 130 122 116 138 165 171 157 98 86 86 280 246 221 213 230 240 240 240 238 233 241 252 255 257 257 254 254 252 240 222 206 201 202 197
302 315 324 342 349 337 249 243 218 78 48 42 35 35 61 64 68 101 108 115 111 101 118 120 90 78 66 30 39 25 353 6 5 357 21 20 347 338 339 343 356 349 320 19 31 40 39 42 55 72 92 98 100 105 103 103 109 110 75 57 63 107 141 189 232 242 239 245 249 244 239 239 239 243 247 249 258 267 262 255 250 236 215 201 198 199 193
299 302 308 14 325 249 223 255 256 98 73 49 53 54 58 65 79 98 97 95 96 87 87 99 97 104 111 73 38 31 7 15 23 2 5 10 351 340 341 334 339 12 42 43 38 41 46 46 49 60 75 83 82 80 84 92 93 91 90 88 96 121 142 167 195 218 245 248 256 255 241 242 251 253 250 246 249 263 270 265 253 234 214 203 200 198 191
49 353 353 179 265 256 176 16 14 79 79 66 80 65 43 43 62 85 97 101 104 107 114 121 122 123 115 81 43 49 30 14 17 22 21 14 2 4 15 1 3 43 57 54 47 46 50 50 50 58 71 80 79 75 75 80 84 91 92 85 83 87 89 107 143 151 163 216 232 240 243 256 267 266 262 260 252 245 252 264 258 241 221 206 201 194 188
99 11 304 280 292 302 22 56 17 98 91 84 110 102 18 18 58 84 107 115 125 140 143 142 147 141 106 65 44 74 67 20 352 355 13 95 74 36 45 63 66 68 71 70 64 59 58 57 56 60 70 79 80 76 72 71 74 80 84 77 68 66 66 70 81 94 116 178 211 226 235 251 280 283 283 281 268 253 248 249 248 245 228 205 193 183 180
129 81 315 299 302 301 274 205 204 109 97 101 108 108 320 336 59 89 110 123 148 160 144 144 177 171 103 74 9 117 125 149 251 355 349 15 100 93 76 80 78 73 74 74 71 68 65 63 62 67 73 79 79 76 73 73 73 75 75 70 59 51 56 66 75 83 89 84 78 79 85 66 27 347 313 295 280 266 257 247 239 241 225 196 179 169 171
108 88 327 283 285 290 266 242 142 76 87 99 93 86 324 295 69 96 114 134 161 163 148 157 181 178 140 165 232 183 155 183 199 158 46 311 147 121 95 83 84 81 78 78 77 74 70 66 66 71 77 80 80 79 81 80 79 78 77 77 74 69 68 73 76 77 78 80 80 71 59 46 24 358 320 293 278 274 273 260 244 234 207 173 156 151 157
155 159 202 251 240 260 285 320 38 46 59 67 65 72 237 238 81 93 128 151 162 158 154 161 176 193 196 190 205 188 164 183 222 196 172 208 146 102 85 84 87 84 78 76 75 74 73 71 72 75 79 79 78 77 79 81 80 79 81 84 86 86 83 82 83 83 82 84 84 77 68 59 46 30 7 330 307 305 303 263 227 200 164 145 137 137 143
181 175 207 233 159 257 299 16 29 17 36 57 67 203 206 171 118 114 138 150 153 156 161 174 196 202 185 157 180 179 159 166 219 220 187 150 114 101 94 93 90 83 77 76 74 73 76 77 77 78 80 79 77 76 76 77 79 81 82 82 82 82 82 80 78 78 78 78 78 77 77 77 73 66 60 58 60 70 88 104 113 113 116 119 121 120 122
212 184 200 196 84 266 254 70 36 15 42 97 210 183 150 141 143 137 131 140 151 156 159 173 178 127 95 97 183 173 166 165 189 212 194 147 127 125 107 93 92 88 81 79 78 77 79 80 79 81 83 81 79 78 77 78 82 84 82 80 78 77 76 74 73 72 71 71 73 73 75 78 77 74 73 76 79 84 91 93 87 83 89 97 99 96 95
245 230 222 159 168 259 242 97 45 13 122 189 186 136 125 138 139 128 122 134 149 149 140 135 119 113 115 73 21 106 142 130 132 228 209 156 146 155 125 96 98 101 94 88 87 85 83 82 81 82 85 85 82 77 75 80 86 87 85 83 81 79 78 77 77 76 73 72 71 70 70 71 71 70 71 75 78 82 87 87 82 79 81 85 86 84 82
76 334 265 193 204 230 219 104 124 188 188 161 139 126 135 141 122 119 122 131 142 143 135 129 125 126 120 73 30 41 82 74 44 288 217 168 156 154 131 115 112 108 102 99 97 94 91 89 88 87 87 87 85 80 80 86 90 88 87 85 82 80 79 78 76 75 73 72 69 67 65 65 65 65 66 69 72 76 80 83 83 82 81 81 81 79 78
209 199 200 210 206 169 102 103 131 129 92 111 124 123 127 130 122 121 122 125 129 128 126 125 123 118 102 81 48 44 59 57 53 49 77 144 141 131 126 131 133 118 109 109 107 104 100 96 92 91 89 88 88 86 88 95 96 93 90 86 82 81 79 76 74 74 74 74 73 71 69 68 67 66 67 68 70 72 74 76 80 83 83 82 79 76 75
278 251 164 154 120 110 107 99 111 119 108 107 111 105 113 132 143 126 123 129 131 127 127 122 113 109 105 95 78 61 47 24 49 52 40 57 100 102 102 114 122 114 107 109 111 111 109 102 94 90 87 89 93 92 91 92 94 94 93 88 84 82 80 78 77 77 76 76 77 78 78 76 74 71 70 70 70 71 72 73 74 76 77 78 76 76 76
107 37 127 119 108 118 123 110 99 110 104 91 93 102 114 123 120 118 122 128 127 124 125 124 117 114 107 94 75 55 38 21 41 49 38 43 73 82 79 82 88 88 85 86 88 90 96 99 94 87 82 83 88 91 92 92 91 90 91 91 89 85 81 78 76 75 74 75 75 76 77 77 75 72 70 68 68 67 68 71 74 74 74 72 72 73 74
169 181 146 108 98 109 122 122 119 115 108 94 89 98 106 104 103 111 118 120 122 122 125 127 121 110 97 90 80 57 35 25 35 43 43 47 62 73 78 81 85 84 81 79 76 73 76 83 87 86 80 74 70 70 79 98 103 95 91 93 95 93 86 79 74 71 70 71 73 74 74 73 72 70 67 66 66 64 65 69 74 78 77 74 72 73 76
352 83 95 85 79 85 107 123 125 121 123 122 109 106 111 109 109 115 119 123 129 133 135 133 124 116 113 113 110 90 47 35 37 44 52 57 60 66 72 77 81 82 82 81 79 76 74 74 76 77 74 68 63 63 73 91 104 100 90 85 86 88 87 82 78 75 71 69 72 75 75 73 73 71 69 68 68 66 66 66 68 71 72 71 72 75 77
1 105 149 86 93 116 152 142 129 125 130 131 126 122 121 122 124 126 127 130 133 135 140 141 129 123 128 131 122 96 57 46 43 45 52 56 57 61 70 78 82 81 79 79 80 79 78 78 76 74 69 66 65 67 75 85 89 87 82 77 76 79 83 82 83 84 83 79 77 78 78 77 77 76 73 70 68 67 66 65 64 64 66 68 70 71 72
163 192 191 137 109 134 173 150 129 129 130 126 124 123 122 126 133 134 136 139 138 140 147 148 137 129 133 128 115 91 66 59 54 50 52 54 53 50 56 68 78 81 82 83 83 82 83 83 83 81 77 71 67 69 76 81 81 79 79 79 79 83 86 86 85 86 88 88 86 85 84 80 79 80 78 74 71 68 66 65 64 64 65 66 67 66 67
141 186 151 124 115 137 158 146 130 130 130 124 120 119 119 127 140 143 147 149 144 141 145 142 133 128 122 112 102 89 72 66 62 54 53 62 68 67 62 63 69 78 86 87 85 86 89 87 86 86 84 77 69 67 73 78 79 81 86 87 87 89 90 91 89 84 83 84 88 94 96 90 84 83 82 81 79 74 69 66 64 64 65 65 65 65 64
160 171 111 106 115 127 133 133 129 130 131 124 116 117 124 134 138 134 134 139 140 135 130 130 130 125 113 102 98 98 90 80 75 67 56 56 65 74 80 80 72 74 85 87 82 82 83 80 75 73 73 77 78 72 70 70 70 76 86 92 94 95 94 91 87 84 80 72 66 75 95 104 102 93 86 87 89 86 80 73 67 65 65 64 64 67 69
139 127 105 100 109 121 126 135 143 143 136 124 117 121 129 126 116 111 114 125 135 137 133 129 124 118 112 108 108 108 102 95 94 92 83 71 62 71 90 99 92 86 88 87 83 80 76 72 69 63 60 66 75 75 73 71 68 71 84 88 86 88 93 90 83 81 77 62 49 51 63 74 96 114 103 96 100 101 93 85 77 72 69 67 66 69 72
131 131 121 112 118 139 155 160 154 145 134 126 124 128 128 119 110 107 110 115 124 130 131 127 120 116 115 115 115 113 112 114 115 113 114 126 127 110 109 112 105 100 99 93 87 84 78 73 69 60 53 55 63 66 68 67 65 72 84 83 75 76 83 85 80 72 60 44 38 42 46 45 50 78 102 95 125 150 129 104 90 83 80 76 72 72 76
150 153 140 136 154 169 167 150 137 131 129 132 134 134 131 126 119 118 116 108 107 113 120 124 124 124 122 119 118 120 122 126 132 135 137 142 143 137 131 121 111 107 104 94 89 90 85 77 70 61 52 49 55 63 64 60 62 74 81 74 65 62 64 68 70 63 50 34 27 36 49 48 40 32 32 41 73 153 151 134 111 98 98 95 87 82 82
163 173 166 155 155 150 136 129 135 135 133 138 139 135 137 139 132 127 129 119 110 111 118 124 126 129 129 128 129 131 132 136 144 150 152 155 160 160 148 130 118 110 101 92 88 89 85 77 70 62 54 48 50 59 61 59 63 72 73 65 58 53 50 51 54 52 46 36 22 19 28 25 13 9 25 40 38 57 136 153 148 127 117 115 108 102 98
158 165 167 148 132 132 133 139 151 152 142 141 142 144 148 146 135 130 133 128 124 128 130 128 127 130 134 136 136 137 141 148 154 155 152 156 160 153 140 128 116 107 100 95 91 88 82 76 67 59 54 52 52 55 61 61 61 62 61 58 56 54 51 46 40 37 38 35 23 8 1 2 2 3 16 27 25 19 27 152 165 164 163 155 137 123 118
135 135 139 132 130 139 145 146 151 155 148 142 145 155 159 148 138 137 135 129 133 140 135 130 131 136 141 141 141 142 145 146 141 130 121 122 133 138 135 129 120 112 108 106 102 97 92 85 73 59 53 54 55 56 60 61 58 57 57 55 51 50 48 38 29 30 31 22 13 9 10 18 32 39 36 35 34 29 28 39 69 106 153 190 181 153 135
135 131 134 137 142 145 145 146 152 157 154 149 152 161 163 151 144 142 137 138 147 146 138 134 135 140 144 146 147 146 142 134 125 118 110 107 112 121 125 124 121 119 119 118 116 113 106 93 79 65 56 54 55 54 56 59 58 56 54 53 50 48 45 35 26 27 29 25 22 26 30 37 44 44 40 38 36 32 30 30 30 38 51 89 182 177 160
142 146 152 154 153 150 148 152 160 163 160 156 155 155 154 151 148 143 141 148 153 148 141 139 140 142 146 148 146 141 133 124 120 118 115 113 115 117 120 122 122 123 125 123 119 115 109 99 89 78 67 62 55 46 46 58 63 58 55 60 58 48 39 35 26 22 29 37 39 39 41 46 45 38 35 35 32 29 28 22 15 20 42 87 145 164 172
150 160 162 150 139 143 150 156 162 166 163 151 144 146 152 154 152 147 145 152 160 158 149 146 145 145 147 145 139 134 129 123 119 119 119 119 120 121 123 126 125 124 126 124 119 114 111 105 95 84 77 73 62 46 37 42 60 70 73 72 57 38 31 33 26 21 31 41 40 34 34 38 37 31 27 25 21 17 11 3 358 359 9 67 171 172 174
137 154 158 141 123 125 136 149 160 164 161 152 149 149 147 147 149 149 148 155 164 163 153 150 150 149 146 143 139 136 134 132 133 132 128 127 130 133 135 132 124 120 120 121 120 119 112 101 89 82 79 74 56 38 31 36 60 79 76 53 34 28 33 35 32 41 52 49 35 28 29 32 32 29 24 22 23 21 14 9 15 25 32 45 139 176 170
132 149 161 155 144 141 141 152 168 168 164 155 145 140 143 150 153 151 151 157 162 159 155 156 157 152 148 149 150 148 145 143 143 144 144 145 147 149 148 145 138 131 124 117 117 117 105 87 78 82 82 72 51 32 27 41 69 71 53 39 34 35 41 43 44 51 54 46 33 29 31 30 29 25 17 14 23 30 30 35 42 43 41 41 41 31 217
143 152 158 159 158 157 159 169 172 165 156 148 140 136 144 154 155 151 153 158 158 156 159 161 158 155 158 162 158 151 147 147 150 153 154 155 161 166 166 166 163 148 131 123 124 127 112 93 88 93 88 75 58 36 22 32 67 63 49 47 48 40 40 52 55 51 47 46 47 46 42 38 38 37 32 32 38 42 42 46 51 49 42 40 43 47 54
149 154 157 160 165 168 171 172 166 151 137 138 143 145 150 153 151 150 153 156 156 158 161 160 157 161 167 163 150 144 145 148 151 153 153 156 163 163 157 159 158 143 133 131 132 127 117 112 114 107 86 72 68 49 28 35 76 72 59 54 48 39 49 60 59 56 62 66 60 50 47 49 51 50 48 48 50 51 49 48 49 50 48 48 52 58 63
152 153 152 155 163 169 168 166 159 144 131 131 140 147 150 152 152 150 150 153 156 159 159 158 160 164 164 149 138 140 145 146 146 146 147 149 148 136 122 118 125 132 135 137 130 116 117 126 125 111 94 91 94 77 58 84 87 66 56 53 49 52 63 67 59 56 62 64 51 43 49 56 57 56 56 56 55 54 52 50 50 50 53 54 56 57 57
146 144 141 142 150 157 158 159 159 150 140 137 143 148 150 153 156 155 151 154 160 163 162 161 160 156 147 139 137 139 142 144 146 146 145 143 141 133 124 121 126 134 142 144 130 117 127 130 120 114 123 125 113 120 182 128 64 45 54 64 63 58 62 62 58 59 64 60 48 44 50 59 63 64 65 64 60 55 54 54 54 54 55 57 58 57 55
131 138 141 141 147 155 159 162 163 153 140 136 144 150 152 156 160 159 155 157 162 165 165 162 155 145 139 139 138 138 140 144 149 151 151 153 153 146 138 138 145 151 154 151 130 121 134 131 118 113 119 108 64 93 150 105 48 46 60 72 73 72 72 69 64 64 66 63 54 50 54 62 67 68 67 65 62 58 57 58 59 59 57 55 53 52 53
127 133 137 140 149 158 164 167 163 151 143 146 152 152 153 159 164 161 158 160 162 162 161 158 150 144 142 140 137 138 142 144 147 150 151 160 169 160 147 147 155 157 152 140 119 122 137 140 128 116 109 84 81 121 115 63 45 56 69 71 68 72 74 72 68 66 65 60 56 55 60 67 70 68 66 65 62 59 58 58 58 59 60 59 55 49 46
126 124 127 137 150 157 163 166 160 148 149 160 161 154 153 162 166 161 159 161 159 155 155 153 148 145 147 145 142 143 146 146 147 147 141 137 156 167 157 153 154 153 145 140 139 141 149 156 154 134 111 112 146 132 82 48 51 68 76 75 70 66 63 65 66 65 62 59 56 57 64 71 70 67 66 65 62 60 60 60 55 53 55 59 59 53 46
137 133 132 137 146 151 156 161 158 153 157 168 166 155 154 162 168 164 161 160 157 154 155 153 150 149 151 151 150 153 154 153 152 150 142 130 129 155 167 164 161 160 158 154 153 161 169 173 169 147 93 108 161 138 72 60 72 83 83 79 74 68 70 77 74 67 63 61 58 55 62 72 74 70 68 70 70 69 68 65 57 50 52 57 61 62 58
141 144 144 143 144 148 151 152 150 150 158 166 166 160 159 164 168 168 164 159 156 157 158 155 152 153 155 156 158 162 164 163 161 160 157 150 148 159 168 168 166 168 168 158 146 152 162 162 156 130 81 136 160 139 82 75 87 92 90 89 87 85 91 88 77 68 69 68 59 53 62 74 79 78 77 83 85 82 79 75 66 61 65 68 66 65 64
137 143 145 144 143 142 143 142 141 142 152 160 163 165 169 170 169 168 166 162 159 160 161 159 158 158 158 159 160 160 160 162 168 173 176 175 171 171 172 170 166 166 164 155 145 151 155 149 137 116 129 150 154 130 92 92 101 100 100 108 106 101 102 95 83 84 89 80 66 67 72 75 76 73 84 111 112 98 88 84 78 72 82 87 78 68 67
137 136 137 141 142 140 140 144 148 153 160 166 163 167 174 173 164 164 166 164 161 160 161 160 161 162 163 164 165 163 157 152 153 164 176 175 169 169 170 166 157 156 155 149 145 149 147 140 147 156 156 157 156 134 107 109 115 120 141 155 124 98 97 94 92 101 102 75 54 202 197 115 89 69 76 132 136 117 91 78 67 67 108 118 102 78 75
125 123 127 136 140 138 141 148 154 161 169 171 164 161 163 158 150 154 161 159 155 156 158 158 159 163 166 168 170 170 166 158 151 152 163 168 167 168 168 163 159 159 159 151 143 138 125 137 161 164 164 165 162 142 127 138 157 168 173 168 144 121 113 105 101 106 82 17 0 101 129 119 101 65 60 122 134 122 97 76 59 51 102 144 137 111 105
115 117 124 132 135 134 141 152 161 164 164 160 153 148 147 147 149 158 162 156 151 150 153 155 157 162 166 166 167 169 171 171 168 165 165 168 168 166 164 162 164 166 167 162 157 157 171 181 170 166 167 170 168 155 159 204 196 181 173 169 157 146 139 138 154 166 62 46 65 85 98 103 85 47 70 114 122 112 106 98 70 58 92 128 126 121 118
123 125 132 142 147 149 155 162 164 160 156 151 146 143 146 153 164 171 165 155 150 148 150 152 155 159 161 163 165 168 171 175 173 167 162 162 165 167 166 167 167 164 162 162 166 171 180 182 174 167 165 169 176 214 261 209 181 163 149 142 147 147 139 128 140 173 60 81 94 88 82 75 25 27 88 120 113 90 105 125 94 77 93 105 113 122 115
138 142 152 157 156 158 164 167 164 162 161 156 149 148 154 164 173 172 162 155 151 149 148 148 152 158 160 161 165 170 171 170 167 164 160 159 163 168 173 177 174 167 160 160 163 165 172 175 172 167 165 208 339 46 150 153 152 149 136 129 139 150 148 133 130 142 152 154 134 38 70 119 116 88 110 130 116 92 82 91 106 109 107 100 96 99 79
149 156 158 155 152 155 161 163 161 161 162 158 152 152 159 168 170 165 160 158 157 156 154 152 156 164 167 167 168 170 168 163 162 162 160 158 160 165 172 179 178 170 163 162 165 169 173 174 171 166 169 319 333 249 175 161 148 146 154 152 145 150 152 139 130 140 160 201 312 352 141 157 156 126 124 145 130 101 79 89 109 119 119 106 92 90 85